Regional Weather Roundup
Issued by NWS

Home | Current Version | Previous Version | Text Only | Print | Product List | Glossary Off
Versions: 1 2 3 4 5 6 7 8 9 10 11 12 13 14 15 16 17 18 19 20 21 22 23 24 25 26 27 28 29 30 31 32 33 34 35 36 37 38 39 40 41 42 43 44 45 46 47 48 49 50

000
ASUS43 KLSX 160059
RWRMO

WEATHER SUMMARY FOR MISSOURI
NATIONAL WEATHER SERVICE SPRINGFIELD MO
800 PM CDT TUE APR 15 2014

NOTE: "FAIR" INDICATES FEW OR NO CLOUDS BELOW 12,000 FEET WITH NO
       SIGNIFICANT WEATHER AND/OR OBSTRUCTIONS TO VISIBILITY.
       CURRENT SKY AND/OR WEATHER CONDITIONS ARE NOT AVAILABLE FOR
       CHILLICOTHE AND FARMINGTON.

MOZ001>031-035>038-043-044-053-054-160200-
...NORTHERN AND WESTERN MISSOURI...

CITY           SKY/WX    TMP DP  RH WIND       PRES   REMARKS
KANSAS CTY INT CLOUDY    50  25  37 S13       30.02F
KANSAS C DTWN  MOCLDY    53  26  35 S13       30.03F
LEE`S SUMMIT   PTCLDY    50  26  39 S8        30.05F
ST JOSEPH      CLOUDY    50  27  40 S15       30.00F
CHILLICOTHE      N/A     48  26  42 S6        30.08F
KIRKSVILLE     PTCLDY    41  22  46 S9        30.10S

$$
MOZ066>068-077>081-088>096-101>105-160200-
...SOUTHWEST MISSOURI...

CITY           SKY/WX    TMP DP  RH WIND       PRES   REMARKS
SPRINGFIELD    PTCLDY    50  22  33 CALM      30.11F
JOPLIN         MOCLDY    49  27  42 S6        30.09F

$$
MOZ032>034-039>042-045>050-055>058-069>072-160200-
...CENTRAL MISSOURI...

CITY           SKY/WX    TMP DP  RH WIND       PRES   REMARKS
COLUMBIA       PTCLDY    46  21  37 SE3       30.13S
JEFFERSON CITY PTCLDY    48  22  35 E3        30.13F
ROLLA          CLEAR     41  24  51 E6        30.11F
SEDALIA        PTCLDY    45  27  49 S6        30.11F
WHITEMAN AFB   PTCLDY    45  28  50 S6        30.09F
OSAGE BEACH    PTCLDY    46  19  34 E3        30.13F

$$
MOZ051-052-059>065-160200-
...EAST CENTRAL MISSOURI...

CITY           SKY/WX    TMP DP  RH WIND       PRES   REMARKS
ST LOUIS INTL  PTCLDY    46  18  32 N5        30.17F
SPIRIT OF STL  MOCLDY    42  24  49 CALM      30.16S
ST CHARLES     CLEAR     46  19  34 CALM      30.17S

$$
MOZ072>076-082>087-097>100-106>115-160200-
...SOUTH CENTRAL AND SOUTHEAST MISSOURI...

CITY           SKY/WX    TMP DP  RH WIND       PRES   REMARKS
CAPE GIRARDEAU CLEAR     42  25  50 NE6       30.20R
FARMINGTON     CLEAR     43  19  39 E3        30.17F
POPLAR BLUFF   CLEAR     47  28  47 MISG      30.17R
WEST PLAINS    CLEAR     43  24  47 E3        30.14F

$$



USA.gov is the U.S. government's official web portal to all federal, state and local government web resources and services.